This demonstration page uses our WeatherBlox Daily Observations layout. Learn more.

Left ArrowRight Arrow

38.80484, -77.04692

Hourly Observations for August 18, 2021

Temp ( °F °C ) Dew Point ( °F °C ) Humidity (%) Winds ( mph kmh ) Pressure ( in mb ) Visibility ( mi km ) Precip ( " mm )
12:52 am 00:52 Mostly Cloudy 80 26.7 75 23.9 85 85 SSE 7 11 30.14 1021 10 16 N/A
1:52 am 01:52 Mostly Cloudy with Light Rain 80 26.7 75 23.9 85 85 SSE 9 15 30.14 1021 10 16 0.00 0.00
2:41 am 02:41 Cloudy with Light Rain 79 26.1 75 23.9 88 88 S 10 17 30.14 1021 10 16 0.00 0.00
2:52 am 02:52 Cloudy with Light Rain 79 26.1 76 24.4 90 90 S 8 13 30.14 1021 8 13 0.05 1.27
3:03 am 03:03 Cloudy with Light Rain 79 26.1 75 23.9 88 88 S 8 13 30.14 1021 10 16 0.00 0.00
3:29 am 03:29 Cloudy 79 26.1 75 23.9 88 88 SSE 7 11 30.13 1020 10 16 0.00 0.00
3:52 am 03:52 Cloudy 79 26.1 75 23.9 88 88 SSE 8 13 30.12 1020 10 16 0.00 0.00
4:52 am 04:52 Cloudy 79 26.1 75 23.9 88 88 SSE 7 11 30.12 1020 10 16 N/A
5:52 am 05:52 Cloudy 79 26.1 75 23.9 88 88 SSE 8 13 30.13 1020 10 16 N/A
6:52 am 06:52 Cloudy 79 26.1 75 23.9 88 88 SSE 8 13 30.14 1021 10 16 0.00 0.00
7:52 am 07:52 Cloudy 80 26.7 75 23.9 85 85 SSE 12 19 30.13 1020 10 16 N/A
8:52 am 08:52 Cloudy 82 27.8 75 23.9 79 79 SSE 13 20 30.12 1020 10 16 N/A
9:10 am 09:10 Cloudy 83 28.3 75 23.9 77 77 SSE 12 19 30.12 1020 10 16 N/A
9:52 am 09:52 Cloudy 84 28.9 74 23.3 72 72 SSE 17 28 30.12 1020 10 16 N/A
10:30 am 10:30 Cloudy 84 28.9 74 23.3 72 72 SSE 14 22 30.12 1020 10 16 N/A
10:52 am 10:52 Cloudy 84 28.9 74 23.3 72 72 S 15 24 30.11 1020 10 16 N/A
11:52 am 11:52 Cloudy 85 29.4 74 23.3 70 70 SSE 20 31 30.09 1019 10 16 N/A
12:36 pm 12:36 Cloudy with Light Rain 82 27.8 75 23.9 79 79 S 16 26 30.08 1019 3 4 0.02 0.51
12:44 pm 12:44 Cloudy with Light Rain 83 28.3 76 24.4 79 79 S 14 22 30.07 1018 6 10 0.04 1.02
12:52 pm 12:52 Cloudy with Light Rain 83 28.3 76 24.4 79 79 S 13 20 30.07 1018 10 16 0.04 1.02
1:05 pm 13:05 Cloudy with Rain 81 27.2 76 24.4 85 85 S 13 20 30.07 1018 2 2 0.00 0.00
1:08 pm 13:08 Cloudy with Heavy Rain 79 26.1 75 23.9 88 88 SSW 18 30 30.07 1018 1 1 0.10 2.54
1:13 pm 13:13 Cloudy with Heavy Rain 79 26.1 75 23.9 88 88 S 16 26 30.07 1018 4 6 0.25 6.35
1:23 pm 13:23 Mostly Cloudy with Light Rain 81 27.2 77 25 88 88 SSW 12 19 30.07 1018 4 6 0.27 6.86
1:52 pm 13:52 Partly Cloudy 85 29.4 78 25.6 80 80 S 10 17 30.04 1017 10 16 0.27 6.86
2:52 pm 14:52 Mostly Cloudy 86 30 76 24.4 72 72 S 21 33 30.04 1017 10 16 N/A
3:52 pm 15:52 Mostly Cloudy 87 30.6 76 24.4 70 70 S 20 31 30.03 1017 10 16 N/A
4:52 pm 16:52 Mostly Cloudy 87 30.6 76 24.4 70 70 S 20 31 30.00 1016 10 16 N/A
5:52 pm 17:52 Mostly Cloudy 86 30 76 24.4 72 72 S 16 26 30.01 1016 10 16 N/A
6:52 pm 18:52 Mostly Cloudy 86 30 77 25 75 75 S 16 26 29.98 1015 10 16 N/A
7:52 pm 19:52 Mostly Cloudy 85 29.4 76 24.4 75 75 S 12 19 30.00 1016 10 16 N/A
8:52 pm 20:52 Mostly Cloudy 83 28.3 76 24.4 79 79 S 12 19 30.01 1016 10 16 N/A
9:52 pm 21:52 Mostly Cloudy 83 28.3 77 25 82 82 S 12 19 30.02 1017 10 16 N/A
10:52 pm 22:52 Mostly Cloudy 82 27.8 75 23.9 79 79 SSW 9 15 30.02 1017 10 16 N/A
11:52 pm 23:52 Mostly Cloudy 82 27.8 74 23.3 77 77 SSW 8 13 30.03 1017 10 16 N/A

Powered by AerisWeather